TimeMDT,TemperatureF,Dew PointF,Humidity,Sea Level PressureIn,VisibilityMPH,Wind Direction,Wind SpeedMPH,Gust SpeedMPH,PrecipitationIn,Events,Conditions,WindDirDegrees,DateUTC
12:13 AM,28.4,21.2,74,30.11,10.0,NW,8.1,-,N/A,,Partly Cloudy,320,2013-03-16 06:13:00
12:53 AM,28.0,21.0,75,30.14,10.0,NNW,9.2,-,N/A,,Mostly Cloudy,330,2013-03-16 06:53:00
1:53 AM,27.0,19.9,75,30.16,10.0,NNW,11.5,-,N/A,,Overcast,330,2013-03-16 07:53:00
2:51 AM,26.6,19.4,74,30.11,10.0,NNW,6.9,-,N/A,,Mostly Cloudy,340,2013-03-16 08:51:00
2:53 AM,26.1,19.9,78,30.15,10.0,NNW,9.2,-,N/A,,Mostly Cloudy,340,2013-03-16 08:53:00
3:53 AM,25.0,19.0,78,30.15,10.0,North,11.5,-,N/A,,Overcast,10,2013-03-16 09:53:00
4:53 AM,26.1,19.0,75,30.13,10.0,NNE,9.2,-,N/A,,Overcast,30,2013-03-16 10:53:00
5:53 AM,25.0,19.9,81,30.14,10.0,NE,8.1,-,N/A,,Overcast,50,2013-03-16 11:53:00
6:53 AM,25.0,19.0,78,30.14,10.0,ENE,10.4,-,N/A,,Overcast,60,2013-03-16 12:53:00
7:49 AM,24.8,17.6,74,30.06,10.0,NE,8.1,-,N/A,,Overcast,50,2013-03-16 13:49:00
7:53 AM,25.0,19.0,78,30.14,10.0,ENE,8.1,-,N/A,,Overcast,60,2013-03-16 13:53:00
8:13 AM,24.8,19.4,80,30.05,10.0,NE,6.9,-,N/A,,Overcast,40,2013-03-16 14:13:00
8:53 AM,25.0,19.0,78,30.13,10.0,NE,9.2,-,N/A,,Overcast,50,2013-03-16 14:53:00
9:17 AM,24.8,19.4,80,30.04,1.8,ENE,11.5,-,0.00,Snow,Light Snow,60,2013-03-16 15:17:00
9:28 AM,24.8,19.4,80,30.04,2.5,NE,11.5,-,0.00,Snow,Light Snow,50,2013-03-16 15:28:00
9:39 AM,24.8,19.4,80,30.05,1.8,ENE,10.4,-,0.00,Snow,Light Snow,60,2013-03-16 15:39:00
9:47 AM,24.8,19.4,80,30.05,0.5,ENE,8.1,-,0.00,Fog-Snow,Snow,60,2013-03-16 15:47:00
9:53 AM,24.1,19.9,84,30.14,0.2,ENE,9.2,-,0.00,Fog-Snow,Snow,60,2013-03-16 15:53:00
9:55 AM,24.8,19.4,80,30.05,0.5,ENE,9.2,-,0.00,Fog-Snow,Snow,60,2013-03-16 15:55:00
10:08 AM,24.8,19.4,80,30.05,1.8,NE,9.2,-,0.00,Snow,Light Snow,40,2013-03-16 16:08:00
10:22 AM,24.8,21.2,86,30.05,2.0,NE,11.5,-,0.00,Snow,Light Snow,50,2013-03-16 16:22:00
10:46 AM,26.6,21.2,80,30.04,1.5,NE,11.5,-,0.00,Snow,Light Snow,50,2013-03-16 16:46:00
10:53 AM,25.0,21.0,85,30.13,1.2,NE,10.4,-,0.00,Snow,Light Snow,50,2013-03-16 16:53:00
10:59 AM,26.6,21.2,80,30.04,1.0,NE,11.5,-,0.00,Snow,Light Snow,50,2013-03-16 16:59:00
11:09 AM,26.6,23.0,86,30.04,1.2,NE,11.5,-,0.00,Snow,Light Snow,40,2013-03-16 17:09:00
11:22 AM,26.6,23.0,86,30.04,3.0,NNE,12.7,-,0.00,Snow,Light Snow,30,2013-03-16 17:22:00
11:43 AM,26.6,21.2,80,30.03,4.0,NE,15.0,-,0.00,Snow,Light Snow,50,2013-03-16 17:43:00
11:53 AM,26.1,21.9,84,30.12,6.0,NE,15.0,-,0.00,Snow,Light Snow,50,2013-03-16 17:53:00
12:53 PM,28.9,24.1,82,30.09,10.0,NE,15.0,-,0.00,,Overcast,50,2013-03-16 18:53:00
1:11 PM,28.4,23.0,80,30.00,10.0,NE,12.7,-,N/A,,Overcast,50,2013-03-16 19:11:00
1:44 PM,28.4,23.0,80,30.00,10.0,ENE,13.8,-,N/A,,Overcast,60,2013-03-16 19:44:00
1:53 PM,28.9,21.9,75,30.08,10.0,NE,15.0,-,N/A,,Overcast,50,2013-03-16 19:53:00
2:20 PM,28.4,21.2,74,29.98,10.0,NE,15.0,-,N/A,,Overcast,50,2013-03-16 20:20:00
2:53 PM,28.9,21.9,75,30.06,10.0,NE,15.0,-,N/A,,Overcast,50,2013-03-16 20:53:00
3:53 PM,28.9,21.9,75,30.04,10.0,NE,13.8,-,N/A,,Overcast,50,2013-03-16 21:53:00
4:53 PM,30.9,21.9,69,30.01,10.0,ENE,18.4,-,N/A,,Mostly Cloudy,70,2013-03-16 22:53:00
5:53 PM,28.9,21.0,72,30.01,10.0,ENE,15.0,-,N/A,,Clear,60,2013-03-16 23:53:00
6:53 PM,26.1,21.0,81,30.01,10.0,ENE,17.3,-,N/A,,Mostly Cloudy,60,2013-03-17 00:53:00
7:53 PM,25.0,19.0,78,29.99,10.0,ENE,12.7,-,N/A,,Scattered Clouds,60,2013-03-17 01:53:00
8:53 PM,24.1,19.9,84,29.97,10.0,NE,12.7,-,N/A,,Clear,50,2013-03-17 02:53:00
9:53 PM,24.1,19.9,84,29.95,10.0,NE,10.4,-,N/A,,Clear,50,2013-03-17 03:53:00
10:53 PM,23.0,19.9,88,29.90,10.0,NE,10.4,-,N/A,,Clear,50,2013-03-17 04:53:00
11:53 PM,23.0,19.9,88,29.86,10.0,NE,10.4,-,N/A,,Partly Cloudy,50,2013-03-17 05:53:00